Tracking 20369 objects as of 18-Feb-2020
HD Live streaming from Space Station
objects crossing your sky now

COSMOS 681

Track COSMOS 681 now!
10-day predictions
COSMOS 681 is classified as:


NORAD ID: 7439
Int'l Code: 1974-072E
Perigee: 1,471.9 km
Apogee: 1,479.5 km
Inclination: 74.0 °
Period: 115.3 minutes
Semi major axis: 7846 km
RCS: 0.6868 m2 (medium)
Launch date: September 19, 1974
Source: Commonwealth of Independent States (former USSR) (CIS)
Launch site: PLESETSK MISSILE AND SPACE COMPLEX (PKMTR)
aabbcc
Your satellite tracking list
Your tracking list is empty




NASA's NSSDC Master Catalog

Two Line Element Set (TLE):
1  7439U 74072E   20048.68428287 +.00000002 +00000-0 +11842-3 0  9993
2  7439 074.0341 200.6482 0004812 263.9704 107.5853 12.49032878070709
Source of the keplerian elements: AFSPC